Location: Invercargill
(46.4000°S, 168.3500°E)
Time: 18:37:08
(UTC+12:00)

ATLAS CENTAUR R/B - Pass Details

Date: 14 May 2021
Orbit: 213 x 5777 km, 57.3° (Epoch: 14 June)

Event Time Altitude Azimuth Distance (km) Brightness Sun altitude
Rises 19:43:49 0° 300° (WNW) 8,943 9.0 -23.8°
Reaches altitude 10° 19:51:20 10° 297° (WNW) 7,050 8.2 -25.1°
Maximum altitude 20:09:59 66° 215° (SW) 1,910 4.5 -28.3°
Enters shadow 20:13:32 38° 147° (SSE) 1,967 4.3 -28.9°
